Torna al catalogo

DELTA 1 DEB

AttivoSSO
NORAD 10843·DEBRIS·🇺🇸 United States

Lanciato Jul 29, 1976 da Vandenberg Space Force Base

Loading…

Prossimi Passaggi (prossime 24 ore)

TLE

AggiornatoSource: Space-Track

Epoca: Sep 14, 2026, 10:11 UTC

1 10843U 76077CP  26257.42475853 -.00000013  00000-0  18058-3 0  9993
2 10843 101.7266 228.0517 0117370 114.4854  36.3872 12.58581684300462

Traccia DELTA 1 DEB in tempo reale con AllMySat

Download on the App Store